,

(GMT )
Al Udeid

Weather History for KQIR - February, 2013

Change the Weather History Date:

Friday, February 15, 2013

  Actual Average Record
Temperature  
Mean Temperature 66 °F -  
Max Temperature 80 °F - - ()
Min Temperature 52 °F - - ()
Cooling Degree Days 1    
Growing Degree Days 16 (Base 50)    
Moisture  
Dew Point 52 °F    
Average Humidity 67    
Maximum Humidity 92    
Minimum Humidity 30    
Precipitation  
Precipitation 0.00 in - - ()
Sea Level Pressure  
Sea Level Pressure 30.05 in    
Wind  
Wind Speed 7 mph ()    
Max Wind Speed 16 mph    
Max Gust Speed 18 mph    
Visibility 6.2 miles    
Events      
Averages and records for this station are not official NWS values.
T = Trace of Precipitation, MM = Missing Value Source: Averaged Metar Reports

Daily Weather History Graph

Daily Weather History Graph

Search for Another Location

Airport or City:

Trip Planner

Search our weather history database for the weather conditions in past years. The results will help you decide how hot, cold, wet, or windy it might be!

Date:

Astronomy

Feb. 15, 2013 Rise Set
Actual Time 6:09 AM +03 5:28 PM +03
Civil Twilight 5:45 AM +03 5:52 PM +03
Nautical Twilight 5:19 AM +03 6:19 PM +03
Astronomical Twilight 4:52 AM +03 6:45 PM +03
Moon 9:09 AM +03 (2/15) 10:25 PM +03 (2/15)
Length of Visible Light 12h 06m
Length of Day
11h 19m
Waxing Crescent, 27% of the Moon is Illuminated
Feb 15
Waxing Crescent
Feb 17
First Quarter
Feb 25
Full
Mar 5
Last Quarter
Mar 11
New

Hourly Weather History & Observations

Time (+03) Temp. Dew Point Humidity Pressure Visibility Wind Dir Wind Speed Gust Speed Precip Events Conditions
12:55 AM 52.9 °F 44.1 °F 72% 30.06 in 6.2 mi WNW 4.6 mph - N/A   Clear
1:55 AM 52.0 °F 44.6 °F 76% 30.04 in 6.2 mi West 9.2 mph - N/A   Clear
2:55 AM 53.1 °F 46.6 °F 79% 30.03 in 6.2 mi WNW 8.1 mph - N/A   Clear
3:55 AM 53.8 °F 49.1 °F 84% 30.03 in 6.2 mi WNW 8.1 mph - N/A   Clear
4:55 AM 53.4 °F 50.4 °F 89% 30.04 in 6.2 mi WNW 9.2 mph - N/A   Clear
5:55 AM 52.3 °F 49.6 °F 91% 30.07 in 6.2 mi WNW 9.2 mph - N/A   Clear
6:55 AM 53.6 °F 51.4 °F 92% 30.09 in 5.6 mi WNW 10.4 mph - N/A   Clear
7:55 AM 59.9 °F 54.5 °F 82% 30.10 in 6.2 mi WNW 11.5 mph - N/A   Clear
8:55 AM 64.9 °F 55.4 °F 71% 30.11 in 6.2 mi NW 16.1 mph - N/A   Clear
9:55 AM 69.1 °F 55.6 °F 62% 30.10 in 6.2 mi NNW 15.0 mph - N/A   Clear
10:55 AM - - N/A% 30.08 in - NNW 13.8 mph - N/A   Unknown
11:09 AM 73.6 °F 54.9 °F 52% 30.09 in 6.2 mi North 11.5 mph - N/A   Clear
11:55 AM - - N/A% 30.06 in - NNE 10.4 mph - N/A   Unknown
12:55 PM 80.1 °F 48.4 °F 33% 30.03 in 6.2 mi NNE 9.2 mph - N/A   Clear
1:55 PM 80.6 °F 46.4 °F 30% 30.00 in 6.2 mi North 4.6 mph - N/A   Clear
2:55 PM 79.9 °F 47.3 °F 32% 30.00 in 6.2 mi ENE 6.9 mph - N/A   Clear
3:55 PM 79.2 °F 48.9 °F 35% 30.00 in 6.2 mi East 10.4 mph 18.4 mph N/A   Clear
4:55 PM 76.6 °F 48.9 °F 38% 30.01 in 6.2 mi ENE 10.4 mph - N/A   Clear
5:55 PM 71.4 °F 57.6 °F 62% 30.02 in 6.2 mi ENE 8.1 mph - N/A   Clear
6:55 PM 68.9 °F 59.0 °F 71% 30.04 in 6.2 mi ENE 4.6 mph - N/A   Clear
7:55 PM 67.3 °F 58.8 °F 74% 30.05 in 6.2 mi Calm Calm - N/A   Clear
8:55 PM 62.8 °F 54.3 °F 74% 30.05 in 6.2 mi Calm Calm - N/A   Clear
9:55 PM 62.4 °F 54.9 °F 76% 30.05 in 6.2 mi Calm Calm - N/A   Clear
10:55 PM 61.2 °F 55.8 °F 82% 30.03 in 6.2 mi NW 5.8 mph - N/A   Clear
11:55 PM 57.9 °F 53.6 °F 86% 30.03 in 6.2 mi NNW 8.1 mph - N/A   Clear